{"data":{"norad_id":63425,"epoch":"2026-09-20T05:49:28.915392Z","epoch_age_seconds":181091,"freshness":"STALE","line1":"1 63425U 25065AC  26263.24269578  .00012441  00000+0  46086-3 0  9998","line2":"2 63425  43.0041  88.3282 0001838 269.2124  90.8517 15.27580366 82598","mean_motion":15.27580366,"eccentricity":0.0001838,"inclination_deg":43.0041,"raan_deg":88.3282,"arg_perigee_deg":269.2124,"mean_anomaly_deg":90.8517,"bstar":0.00046086,"rev_number":8259,"period_min":94.266726127848,"perigee_km":481.78691430119,"apogee_km":484.30908590722,"semimajor_km":6861.1850001042,"source":"CELESTRAK","updated_at":"2026-09-21T09:00:34.983114Z"}}